Location: Albert Place
(40.7505°N, 111.9230°W)
Time: 17:13:19
(UTC+00:00)

Cosmos 1570 Rocket - Pass Details

Date: 22 March 2026
Orbit: 759 x 783 km, 74.1° (Epoch: 18 April)

Event Time Altitude Azimuth Distance (km) Brightness Sun altitude
Rises 05:22:33 0° 339° (NNW) 3,238 8.0 -38.9°
Reaches altitude 10° 05:24:56 10° 338° (NNW) 2,311 7.1 -39.2°
Enters shadow 05:26:22 19° 337° (NNW) 1,765 6.3 -39.4°
